COSMOS 2090

Satellite information

Favourite Embed

Satellite Type and Status

PAYLOADIN ORBIT

Key statistics

Satellite COSMOS 2090 at a glance.

Uptime

12754

Days in orbit

Revolutions

≈ 12.7

Per day

Orbit

LEO

Low Earth Orbit

Inclination

82.6

Latest

Satellite identification and parameters

Extended collection of information and parameters for COSMOS 2090.

Object identification

Identified? True

Debris? False

Object name: COSMOS 2090

International designator: 1990-070A

Object number (NORAD): 20735

Object ID (CCSDS): 20735

Country: COMMONWEALTH OF INDEPENDENT STATES (CIS)

Current information (Y/N): Y

RCS size: LARGE

Orbital parameters

Period: 113.802 minutes

Inclination: 82.5673 deg

SMA: 7779.064 km

Apoapsis: 1412.715 km

Periapsis: 1389.144 km

RAAN: 132.863 deg

Eccentricy: 0.001515

Argument of periapsis: 122.28 deg

Mean anomaly: 292.8493 deg

Mean motion: 12.65353047 rev/day

Mean motion (dot): 0.00000004 rev/day2

B* drag term: -0.000033823 1/REarth

Two-line elements (TLE)

Creation date: July 9, 2025, 2:22 a.m.

Reference frame: TEME

Reference center: EARTH

Epoch: July 8, 2025, 9:07 p.m. UTC

TLE line 0: 0 COSMOS 2090

TLE line 1: 1 20735U 90070A 25189.88013917 .00000004 00000-0 -33823-4 0 9993

TLE line 2: 2 20735 82.5673 132.8630 0015150 122.2800 292.8493 12.65353047612518

Live tracking on map

Real-time ground track for satellite COSMOS 2090.

In-orbit conjunctions

There are no conjunctions computed for COSMOS 2090, at the moment. Check back to stay up to date, as we update our databases every day.

Go to all conjunctions

Associated space launch

Second generation store-dump military communications satellite

COSMOS 2090 was lifted into orbit during the mission ‘Tsiklon-3 | Strela-3 49 to 54’, on board a Tsiklon-3 space rocket.

The launch took place on Aug. 8, 1990, 4:15 a.m. from 32/2.

For more information about the launch, click the button.

Launch to space Tsiklon-3 | Strela-3 49 to 54
Tsiklon-3 | Strela-3 49 to 54

Agency: N/A

Status: Launch Successful

Launch date: Aug. 8, 1990, 4:15 a.m. UTC

Rocket: Tsiklon-3

Launch pad: 32/2

Location: Plesetsk Cosmodrome, Russian Federation

...

Latest news about this satellite

There are no fresh news available about this satellite. Check back as we update our databases every day.


Newsletter sign-up

Weekly statistics, charts and insights to help you stay on top of the space industry.